Location: Conover
(35.7170°N, 81.2250°W)
Time: 14:12:53
(UTC-05:00)

Daily predictions for brighter satellites

Satellite Brightness Start Highest point End
(mag) Time Altitude Azimuth Time Altitude Azimuth Time Altitude Azimuth
Cosmos 2360 4.5 18:28:00 10° N 18:33:31 47° ENE 18:39:01 10° SE
ATLAS 2A CENTAUR R/B 2.9 18:33:01 10° SSW 18:34:28 15° SSE 18:36:48 10° ESE
ASTRO E2 3.5 18:34:50 10° WSW 18:38:42 45° S 18:42:34 10° ESE
YAOGAN 1 4.5 18:38:58 10° SSW 18:42:57 36° W 18:46:56 10° NNW
Cosmos 1378 Rocket 3.6 18:39:13 10° N 18:43:33 82° W 18:47:50 10° S
OAO 3 Copernicus 4.5 18:39:16 10° WSW 18:44:19 67° SSE 18:49:15 11° E
FREGAT/IRIS 3.5 18:45:17 10° SE 18:47:59 29° ENE 18:50:43 10° NNE
Cosmos 1782 Rocket 3.7 18:44:44 10° S 18:49:08 85° W 18:53:36 10° N
Helios 1B rocket 4.4 18:51:26 11° E 18:51:26 11° E 18:52:28 10° ESE
Cosmos 2322 Rocket 2.9 18:47:47 10° N 18:52:45 31° ENE 18:57:40 10° ESE
Cosmos 1633 4.3 18:51:06 10° ESE 18:52:56 13° E 18:53:50 12° ENE
Meteor 1-25 Rocket 4.2 18:51:27 10° S 18:56:55 62° E 19:02:29 10° NNE
Cosmos 1346 Rocket 2.9 18:54:08 10° N 18:58:05 80° W 19:01:58 10° S
Okean 2 Rocket 3.1 18:54:24 10° S 18:58:53 90° E 19:03:21 10° N
Meteor 1-28 Rocket 4.3 18:57:13 10° N 19:00:53 48° WNW 19:04:33 10° SSW
COSMO-SKYMED 1 4.1 18:59:00 10° N 19:03:03 39° WNW 19:07:04 10° SW
ALOS 2.8 18:59:00 10° SE 19:03:16 37° ENE 19:07:32 10° N
HJ-1C 4.2 19:01:02 10° SE 19:04:00 29° ENE 19:06:59 10° NNE
Cosmos 1745 Rocket 4.2 19:01:38 10° S 19:07:59 82° W 19:14:19 10° N
CENTAUR R/B 3.1 19:00:34 10° NNW 19:08:35 83° ENE 19:17:00 10° SSE
H-2A R/B 3.7 19:10:31 18° ESE 19:12:08 25° ENE 19:15:12 10° NNE
SL-8 R/B 3.8 19:08:26 10° NW 19:13:12 60° NNE 19:16:32 19° ESE
GOES 2 Rocket 4.4 19:09:15 10° WSW 19:13:23 30° S 19:16:33 13° SE
PSLV R/B 3.1 19:10:51 10° WNW 19:14:00 79° SSW 19:15:47 23° ESE
Cosmos 2151 Rocket 3.6 19:12:24 10° S 19:16:49 63° E 19:21:17 10° NNE
Cosmos 1818 3.7 19:14:25 10° S 19:19:40 51° ESE 19:24:33 12° NE
FENGYUN 3A 3.7 19:15:04 10° SSE 19:20:19 56° ENE 19:25:38 10° N
deb Kosmos-1763 4.1 19:19:44 10° SSW 19:23:32 86° WNW 19:27:21 10° NNE
Cosmos 1812 2.7 19:21:31 10° N 19:25:23 86° W 19:29:13 10° S
Cosmos 44 Rocket 3.3 19:27:25 10° NNW 19:32:10 78° WSW 19:36:48 10° SSE
Okean 1 Rocket 3.9 19:28:15 10° SSE 19:31:26 30° ESE 19:31:26 30° ESE
DELTA 2 R/B (1) 3.9 19:26:44 10° W 19:32:17 58° N 19:35:04 28° ENE
SL-19 R/B 4.2 19:33:51 10° SSE 19:39:23 74° ENE 19:45:11 10° NNW
Cosmos 2292 Rocket 3.9 19:36:52 10° S 19:41:09 84° W 19:47:01 10° N
Cosmos 1602 3.6 19:39:55 10° S 19:43:42 62° E 19:45:05 36° NNE
SJ-6B 4.3 19:42:46 10° S 19:46:37 40° W 19:50:25 10° NNW
Cosmos 2360 Rocket 2.8 19:41:58 10° N 19:46:58 33° ENE 19:46:58 33° ENE
Cosmos 1980 Rocket 4.2 19:42:48 10° NW 19:47:38 29° WSW 19:52:27 10° SSW
BREEZE-M DEB (TANK) 2.4 19:43:27 10° SW 19:47:59 64° SSE 19:47:59 64° SSE
TSX-5 3.6 19:44:58 10° SSW 19:47:37 52° S 19:47:37 52° S
Cosmos 1461 3.4 19:45:18 10° NNW 19:48:31 41° NNE 19:48:31 41° NNE
Cosmos 676 Rocket 3.9 19:44:58 10° SSW 19:50:08 86° WNW 19:55:23 10° NNE
Helios 1A 3.8 19:52:22 35° NNE 19:52:22 35° NNE 19:55:08 10° N
Cosmos 407 Rocket 4.1 19:46:40 10° SSW 19:51:47 56° WNW 19:56:59 10° N
Tiangong 2 2.9 19:49:19 10° NW 19:51:10 23° NNW 19:51:10 23° NNW
Gbstr 26 Del rocket 4.3 19:52:08 10° SSW 19:53:58 23° S 19:53:58 23° S
Cosmos 1023 Rocket 4.3 19:52:03 10° S 19:57:03 64° ESE 19:58:28 44° NE
Cosmos 1833 4.1 19:52:03 10° SSW 19:57:45 78° ESE 20:01:51 20° NNE
Resurs 01 Rocket 2.2 20:00:00 10° S 20:04:20 58° W 20:08:41 10° NNW
SL-24 R/B 4.4 20:03:17 51° SE 20:04:23 66° E 20:09:48 10° N
ERBS 4.2 20:01:38 10° WNW 20:04:37 27° WSW 20:05:29 24° SSW
Meteor 1-19 Rocket 4.1 19:59:31 10° N 20:05:11 73° E 20:08:13 29° SSE
Cosmos 44 3.6 20:00:56 10° NW 20:05:13 54° WSW 20:06:47 34° S
Cosmos 2181 Rocket 4.0 20:05:38 10° N 20:11:52 81° W 20:18:11 10° S
Meteor 1-13 Rocket 4.2 20:10:19 10° NNW 20:15:51 77° W 20:21:27 10° S
SL-16 R/B 3.0 20:11:15 10° NNW 20:16:42 50° WSW 20:22:08 10° S
ASTRO E2 4.3 20:15:20 10° WSW 20:18:04 29° SW 20:18:04 29° SW
DNEPR-1 R/B 4.1 20:17:04 10° NW 20:20:47 54° W 20:20:47 54° W
Cosmos 1140 Rocket 3.7 20:20:14 10° SSW 20:25:19 67° WNW 20:26:22 53° NNW
Helios 1B rocket 3.6 20:27:48 39° WSW 20:27:48 39° WSW 20:30:49 10° SSW
Cosmos 2184 Rocket 3.8 20:24:14 10° S 20:30:34 85° E 20:36:54 10° N
Cosmos 2074 Rocket 3.9 20:27:03 10° S 20:33:18 88° W 20:39:36 10° N
Cosmos 2322 Rocket 3.8 20:31:48 10° NW 20:36:41 31° WSW 20:41:34 10° SSW
Cosmos 2322 4.4 20:38:39 10° NNW 20:42:35 46° NNW 20:42:35 46° NNW
Cosmos 2360 Rocket 4.3 21:26:05 10° NW 21:28:48 23° WNW 21:28:48 23° WNW
